�������l�o���
Date,Time,MP-1(��Sv/h),MP-2(��Sv/h),MP-3(��Sv/h),MP-4(��Sv/h),MP-5(��Sv/h),MP-6(��Sv/h),MP-7(��Sv/h),MP-8(��Sv/h),����,����(m/s),���J
2020/03/06,00:00,0.684,0.977,0.658,1.197,0.856,0.398,0.692,0.658,��,9.7,��
2020/03/06,00:10,0.684,0.978,0.659,1.198,0.856,0.398,0.692,0.660,��,8.3,��
2020/03/06,00:20,0.683,0.978,0.658,1.199,0.859,0.398,0.695,0.659,���k��,8.1,��
2020/03/06,00:30,0.681,0.974,0.657,1.197,0.859,0.397,0.694,0.658,��,7.0,��
2020/03/06,00:40,0.683,0.978,0.658,1.197,0.855,0.397,0.694,0.659,��,8.7,�L
2020/03/06,00:50,0.684,0.977,0.658,1.200,0.858,0.398,0.694,0.659,��,8.7,��
2020/03/06,01:00,0.682,0.979,0.659,1.198,0.859,0.397,0.692,0.659,��,8.5,��
2020/03/06,01:10,0.683,0.977,0.660,1.200,0.858,0.398,0.694,0.659,��,9.3,��
2020/03/06,01:20,0.683,0.976,0.660,1.197,0.857,0.397,0.693,0.658,��,8.6,��
2020/03/06,01:30,0.683,0.979,0.659,1.199,0.855,0.399,0.694,0.658,��,6.5,��
2020/03/06,01:40,0.682,0.976,0.659,1.201,0.856,0.396,0.694,0.660,��,5.6,��
2020/03/06,01:50,0.683,0.975,0.659,1.199,0.857,0.397,0.694,0.660,��,5.8,��
2020/03/06,02:00,0.683,0.976,0.659,1.198,0.857,0.397,0.693,0.659,�k��,5.2,��
2020/03/06,02:10,0.683,0.979,0.660,1.201,0.857,0.397,0.692,0.658,�k��,5.7,��
2020/03/06,02:20,0.684,0.977,0.660,1.197,0.858,0.397,0.694,0.660,�k��,7.4,��
2020/03/06,02:30,0.683,0.975,0.660,1.202,0.858,0.399,0.693,0.658,���k��,7.0,��
2020/03/06,02:40,0.684,0.975,0.656,1.198,0.857,0.398,0.695,0.660,�k��,3.8,��
2020/03/06,02:50,0.685,0.978,0.659,1.200,0.859,0.398,0.693,0.659,�k�k��,2.5,��
2020/03/06,03:00,0.683,0.978,0.659,1.199,0.859,0.397,0.694,0.661,�k��,3.3,��
2020/03/06,03:10,0.685,0.979,0.661,1.199,0.858,0.399,0.693,0.659,�k��,5.0,��
2020/03/06,03:20,0.682,0.976,0.659,1.199,0.860,0.396,0.695,0.659,���k��,7.8,��
2020/03/06,03:30,0.683,0.978,0.660,1.199,0.859,0.398,0.693,0.661,���k��,5.8,��
2020/03/06,03:40,0.683,0.975,0.660,1.199,0.859,0.398,0.693,0.658,���k��,6.6,��
2020/03/06,03:50,0.682,0.978,0.660,1.198,0.855,0.398,0.694,0.660,���k��,7.5,��
2020/03/06,04:00,0.684,0.976,0.660,1.199,0.857,0.398,0.693,0.660,���k��,7.5,��
2020/03/06,04:10,0.681,0.977,0.658,1.200,0.858,0.398,0.692,0.658,���k��,9.1,��
2020/03/06,04:20,0.683,0.977,0.660,1.203,0.860,0.398,0.694,0.660,���k��,6.7,��
2020/03/06,04:30,0.684,0.976,0.658,1.199,0.858,0.396,0.694,0.658,�k��,3.8,��
2020/03/06,04:40,0.683,0.978,0.658,1.199,0.857,0.396,0.693,0.659,���k��,2.6,��
2020/03/06,04:50,0.683,0.978,0.658,1.200,0.859,0.398,0.693,0.658,���k��,3.4,��
2020/03/06,05:00,0.683,0.975,0.658,1.202,0.858,0.397,0.693,0.659,�k��,2.6,��
2020/03/06,05:10,0.683,0.976,0.659,1.203,0.859,0.396,0.694,0.658,�k��,3.2,��
2020/03/06,05:20,0.683,0.975,0.659,1.199,0.857,0.395,0.694,0.660,�k��,1.5,��
2020/03/06,05:30,0.683,0.974,0.658,1.199,0.858,0.397,0.691,0.658,���k��,2.5,��
2020/03/06,05:40,0.683,0.975,0.658,1.199,0.858,0.397,0.693,0.659,�k��,2.3,��
2020/03/06,05:50,0.683,0.976,0.659,1.198,0.860,0.397,0.692,0.660,�k��,4.9,��
2020/03/06,06:00,0.683,0.975,0.658,1.198,0.857,0.397,0.692,0.659,���k��,5.4,��
2020/03/06,06:10,0.684,0.978,0.657,1.200,0.859,0.396,0.692,0.659,���k��,2.9,��
2020/03/06,06:20,0.682,0.976,0.660,1.200,0.858,0.397,0.693,0.659,�k��,2.0,��
2020/03/06,06:30,0.684,0.977,0.657,1.198,0.859,0.396,0.693,0.658,�k,2.0,��
2020/03/06,06:40,0.684,0.976,0.659,1.198,0.858,0.396,0.693,0.658,�k�k��,2.0,��
2020/03/06,06:50,0.684,0.977,0.657,1.201,0.857,0.396,0.692,0.660,���k��,1.9,��
2020/03/06,07:00,0.682,0.976,0.659,1.199,0.858,0.397,0.694,0.659,�k��,4.2,��
2020/03/06,07:10,0.685,0.976,0.658,1.199,0.857,0.397,0.693,0.659,�k��,6.8,��
2020/03/06,07:20,0.683,0.976,0.658,1.200,0.856,0.396,0.694,0.659,�k��,9.7,��
2020/03/06,07:30,0.683,0.975,0.659,1.200,0.859,0.397,0.691,0.658,���k��,10.2,��
2020/03/06,07:40,0.685,0.979,0.658,1.200,0.858,0.396,0.694,0.660,�k��,10.9,��
2020/03/06,07:50,0.685,0.979,0.658,1.200,0.857,0.396,0.693,0.659,�k��,9.1,��
2020/03/06,08:00,0.683,0.975,0.659,1.198,0.858,0.398,0.695,0.661,�k��,11.6,��
2020/03/06,08:10,0.684,0.980,0.659,1.198,0.858,0.397,0.694,0.658,�k��,11.6,��
2020/03/06,08:20,0.685,0.979,0.658,1.200,0.859,0.396,0.694,0.658,�k��,10.9,��
2020/03/06,08:30,0.686,0.979,0.659,1.202,0.856,0.396,0.694,0.659,�k��,11.8,��
2020/03/06,08:40,0.687,0.978,0.657,1.200,0.859,0.399,0.694,0.658,���k��,10.3,��
2020/03/06,08:50,0.685,0.978,0.659,1.202,0.856,0.396,0.693,0.660,�k��,8.5,��
2020/03/06,09:00,0.684,0.980,0.660,1.202,0.860,0.396,0.692,0.659,�k��,9.1,��
2020/03/06,09:10,0.686,0.979,0.661,1.203,0.858,0.397,0.693,0.660,�k��,9.7,��
2020/03/06,09:20,0.685,0.975,0.659,1.204,0.859,0.398,0.692,0.660,�k��,10.8,��
2020/03/06,09:30,0.683,0.979,0.659,1.203,0.860,0.398,0.692,0.662,�k��,11.6,��
2020/03/06,09:40,0.685,0.975,0.660,1.202,0.858,0.398,0.691,0.661,�k��,10.7,��
2020/03/06,09:50,0.685,0.977,0.660,1.204,0.859,0.399,0.693,0.659,�k��,9.4,��
2020/03/06,10:00,0.686,0.980,0.659,1.202,0.858,0.396,0.692,0.661,�k��,11.3,��
2020/03/06,10:10,0.686,0.977,0.661,1.203,0.861,0.393,0.693,0.660,�k��,10.2,��
2020/03/06,10:20,0.685,0.976,0.662,1.202,0.861,0.396,0.693,0.660,�k��,8.4,��
2020/03/06,10:30,0.688,0.979,0.658,1.203,0.860,0.397,0.693,0.658,�k��,6.8,��
2020/03/06,10:40,0.688,0.977,0.660,1.202,0.862,0.396,0.692,0.659,�k��,8.3,��
2020/03/06,10:50,0.686,0.979,0.660,1.203,0.861,0.396,0.691,0.658,�k��,7.6,��
2020/03/06,11:00,0.684,0.979,0.660,1.204,0.860,0.394,0.691,0.658,�k��,6.8,��
2020/03/06,11:10,0.686,0.978,0.661,1.205,0.862,0.395,0.692,0.658,�k��,8.5,��
2020/03/06,11:20,0.689,0.978,0.662,1.203,0.861,0.394,0.690,0.658,�k�k��,6.3,��
2020/03/06,11:30,0.687,0.980,0.660,1.203,0.862,0.397,0.693,0.659,�k��,6.8,��
2020/03/06,11:40,0.686,0.981,0.663,1.204,0.863,0.397,0.690,0.662,�k��,7.5,��
2020/03/06,11:50,0.688,0.982,0.660,1.203,0.863,0.396,0.690,0.661,�k��,7.3,��
2020/03/06,12:00,0.687,0.981,0.662,1.203,0.866,0.397,0.692,0.661,�k��,7.4,��
2020/03/06,12:10,0.686,0.980,0.663,1.207,0.863,0.397,0.693,0.661,�k��,5.2,��
2020/03/06,12:20,0.688,0.982,0.664,1.204,0.865,0.397,0.693,0.661,�k�k��,5.2,��
2020/03/06,12:30,0.685,0.984,0.662,1.205,0.864,0.397,0.694,0.660,�k��,7.0,��
2020/03/06,12:40,0.687,0.983,0.662,1.205,0.862,0.398,0.691,0.661,�k��,6.5,��
2020/03/06,12:50,0.688,0.984,0.664,1.207,0.862,0.397,0.693,0.660,�k��,6.5,��
2020/03/06,13:00,0.690,0.984,0.664,1.209,0.862,0.397,0.693,0.660,�k��,5.5,��
2020/03/06,13:10,0.689,0.982,0.661,1.206,0.861,0.398,0.694,0.658,�k��,7.9,��
2020/03/06,13:20,0.688,0.982,0.662,1.207,0.861,0.398,0.694,0.658,�k��,6.8,��
2020/03/06,13:30,0.686,0.984,0.661,1.204,0.862,0.398,0.693,0.659,���k��,6.2,��
2020/03/06,13:40,0.687,0.981,0.662,1.206,0.862,0.398,0.693,0.657,���k��,6.8,��
2020/03/06,13:50,0.690,0.983,0.661,1.206,0.863,0.397,0.692,0.660,���k��,7.0,��
2020/03/06,14:00,0.687,0.984,0.664,1.206,0.863,0.398,0.694,0.659,�k��,5.9,��
2020/03/06,14:10,0.687,0.983,0.662,1.207,0.863,0.396,0.693,0.660,�k��,5.7,��
2020/03/06,14:20,0.688,0.983,0.663,1.206,0.863,0.397,0.692,0.658,�k��,6.2,��
2020/03/06,14:30,0.688,0.984,0.663,1.205,0.861,0.397,0.693,0.659,�k��,5.6,��
2020/03/06,14:40,0.690,0.984,0.661,1.205,0.861,0.396,0.693,0.662,�k��,6.0,��
2020/03/06,14:50,0.686,0.985,0.664,1.205,0.863,0.398,0.692,0.662,�k��,5.7,��
2020/03/06,15:00,0.690,0.983,0.663,1.204,0.862,0.398,0.692,0.661,�k��,7.4,��
2020/03/06,15:10,0.689,0.987,0.664,1.205,0.866,0.397,0.692,0.662,�k��,7.1,��
2020/03/06,15:20,0.689,0.988,0.663,1.208,0.864,0.397,0.691,0.663,���k��,5.3,��
2020/03/06,15:30,0.689,0.989,0.664,1.205,0.867,0.397,0.692,0.662,�k��,6.4,��
2020/03/06,15:40,0.690,0.989,0.663,1.208,0.867,0.398,0.692,0.662,���k��,4.2,��
2020/03/06,15:50,0.688,0.991,0.664,1.206,0.865,0.398,0.693,0.661,��,5.3,��
2020/03/06,16:00,0.690,0.990,0.662,1.206,0.867,0.396,0.692,0.662,��,7.7,��
2020/03/06,16:10,0.690,0.991,0.663,1.208,0.866,0.397,0.692,0.662,��,6.9,��
2020/03/06,16:20,0.688,0.990,0.663,1.204,0.868,0.397,0.694,0.661,��,6.1,��
2020/03/06,16:30,0.689,0.991,0.662,1.206,0.866,0.398,0.692,0.661,��,6.6,��
2020/03/06,16:40,0.690,0.991,0.665,1.207,0.867,0.398,0.692,0.660,���k��,6.0,��
2020/03/06,16:50,0.689,0.992,0.663,1.206,0.866,0.398,0.693,0.661,���k��,6.0,��
2020/03/06,17:00,0.689,0.991,0.665,1.208,0.867,0.397,0.693,0.661,���k��,5.2,��
2020/03/06,17:10,0.688,0.991,0.662,1.209,0.866,0.397,0.693,0.659,���k��,5.1,��
2020/03/06,17:20,0.690,0.991,0.663,1.206,0.865,0.397,0.693,0.660,���k��,5.0,��
2020/03/06,17:30,0.689,0.991,0.664,1.204,0.866,0.398,0.695,0.660,���k��,5.5,��
2020/03/06,17:40,0.689,0.989,0.664,1.207,0.865,0.397,0.693,0.661,���k��,5.0,��
2020/03/06,17:50,0.688,0.988,0.664,1.207,0.868,0.398,0.694,0.663,���k��,4.0,��
2020/03/06,18:00,0.688,0.992,0.663,1.205,0.868,0.398,0.693,0.661,���k��,4.4,��
2020/03/06,18:10,0.687,0.988,0.662,1.206,0.868,0.399,0.695,0.661,�k��,4.1,��
2020/03/06,18:20,0.688,0.989,0.664,1.205,0.867,0.398,0.692,0.660,���k��,4.0,��
2020/03/06,18:30,0.689,0.987,0.664,1.206,0.865,0.398,0.695,0.660,���k��,3.1,��
2020/03/06,18:40,0.689,0.989,0.663,1.207,0.864,0.398,0.694,0.661,�k��,2.9,��
2020/03/06,18:50,0.688,0.991,0.663,1.207,0.867,0.397,0.695,0.661,���k��,2.6,��
2020/03/06,19:00,0.687,0.988,0.661,1.206,0.865,0.397,0.694,0.661,���k��,2.5,��
2020/03/06,19:10,0.688,0.990,0.663,1.205,0.864,0.399,0.694,0.661,���k��,3.0,��
2020/03/06,19:20,0.686,0.988,0.662,1.207,0.864,0.398,0.694,0.661,���k��,3.6,��
2020/03/06,19:30,0.687,0.990,0.663,1.208,0.865,0.398,0.692,0.661,���k��,2.9,��
2020/03/06,19:40,0.687,0.987,0.663,1.205,0.865,0.398,0.692,0.661,���k��,3.2,��
2020/03/06,19:50,0.687,0.989,0.663,1.207,0.865,0.397,0.694,0.658,���k��,3.8,��
2020/03/06,20:00,0.687,0.988,0.663,1.205,0.863,0.397,0.693,0.658,���k��,4.3,��
2020/03/06,20:10,0.685,0.987,0.662,1.206,0.865,0.398,0.692,0.659,���k��,4.7,��
2020/03/06,20:20,0.686,0.989,0.661,1.205,0.864,0.399,0.693,0.659,���k��,3.3,��
2020/03/06,20:30,0.685,0.987,0.662,1.208,0.865,0.396,0.692,0.659,���k��,3.2,��
2020/03/06,20:40,0.684,0.989,0.661,1.205,0.864,0.398,0.691,0.660,���k��,2.6,��
2020/03/06,20:50,0.687,0.990,0.663,1.206,0.867,0.399,0.694,0.659,���k��,2.8,��
2020/03/06,21:00,0.687,0.988,0.662,1.205,0.865,0.397,0.694,0.659,�k��,3.8,��
2020/03/06,21:10,0.685,0.988,0.662,1.206,0.866,0.397,0.691,0.661,�k��,3.3,��
2020/03/06,21:20,0.687,0.985,0.662,1.205,0.863,0.398,0.692,0.659,�k��,2.3,��
2020/03/06,21:30,0.687,0.988,0.662,1.205,0.863,0.397,0.691,0.659,�k��,2.8,��
2020/03/06,21:40,0.687,0.990,0.662,1.206,0.865,0.397,0.691,0.659,�k��,2.9,��
2020/03/06,21:50,0.686,0.987,0.661,1.207,0.865,0.397,0.693,0.659,���k��,2.5,��
2020/03/06,22:00,0.685,0.987,0.660,1.207,0.864,0.396,0.694,0.659,���k��,3.7,��
2020/03/06,22:10,0.687,0.988,0.660,1.205,0.865,0.398,0.692,0.659,���k��,3.9,��
2020/03/06,22:20,0.685,0.988,0.661,1.204,0.866,0.397,0.693,0.660,�k��,4.5,��
2020/03/06,22:30,0.686,0.986,0.662,1.206,0.863,0.396,0.694,0.660,�k��,4.3,��
2020/03/06,22:40,0.685,0.984,0.661,1.206,0.865,0.396,0.692,0.661,�k��,4.3,��
2020/03/06,22:50,0.686,0.984,0.662,1.206,0.866,0.396,0.692,0.658,�k��,5.9,��
2020/03/06,23:00,0.687,0.987,0.661,1.206,0.866,0.396,0.692,0.661,�k��,5.1,��
2020/03/06,23:10,0.684,0.987,0.661,1.206,0.864,0.396,0.693,0.659,�k��,5.1,��
2020/03/06,23:20,0.686,0.988,0.661,1.207,0.865,0.398,0.693,0.660,�k�k��,6.1,��
2020/03/06,23:30,0.686,0.987,0.661,1.205,0.866,0.396,0.692,0.660,�k��,6.6,��
2020/03/06,23:40,0.685,0.986,0.660,1.206,0.863,0.396,0.692,0.659,�k��,6.9,��
2020/03/06,23:50,0.686,0.987,0.661,1.208,0.862,0.397,0.692,0.658,�k��,6.6,��
